TimeCST,TemperatureF,Dew PointF,Humidity,Sea Level PressureIn,VisibilityMPH,Wind Direction,Wind SpeedMPH,Gust SpeedMPH,PrecipitationIn,Events,Conditions,WindDirDegrees,DateUTC
12:52 AM,35.1,28.0,76,30.27,10.0,SE,6.9,-,N/A,,Clear,130,2012-11-18 06:52:00
1:52 AM,37.9,28.0,68,30.27,10.0,ESE,8.1,-,N/A,,Clear,120,2012-11-18 07:52:00
2:52 AM,39.0,28.9,67,30.26,10.0,ESE,9.2,-,N/A,,Clear,120,2012-11-18 08:52:00
3:52 AM,37.9,28.0,68,30.26,10.0,East,6.9,-,N/A,,Clear,100,2012-11-18 09:52:00
4:52 AM,37.0,28.9,73,30.26,10.0,ESE,6.9,-,N/A,,Clear,120,2012-11-18 10:52:00
5:52 AM,36.0,28.9,76,30.26,10.0,SE,8.1,-,N/A,,Clear,130,2012-11-18 11:52:00
6:52 AM,36.0,28.9,76,30.26,10.0,ESE,6.9,-,N/A,,Clear,120,2012-11-18 12:52:00
7:52 AM,41.0,30.9,67,30.26,10.0,ESE,8.1,-,N/A,,Clear,120,2012-11-18 13:52:00
8:52 AM,48.0,33.1,56,30.26,10.0,SSE,10.4,-,N/A,,Clear,160,2012-11-18 14:52:00
9:52 AM,54.0,32.0,43,30.25,10.0,South,12.7,-,N/A,,Clear,180,2012-11-18 15:52:00
10:52 AM,59.0,33.1,38,30.24,10.0,SSW,12.7,-,N/A,,Clear,200,2012-11-18 16:52:00
11:52 AM,62.1,34.0,35,30.21,10.0,South,16.1,25.3,N/A,,Clear,180,2012-11-18 17:52:00
12:52 PM,63.0,34.0,34,30.17,10.0,South,16.1,23.0,N/A,,Clear,180,2012-11-18 18:52:00
1:52 PM,64.0,35.1,34,30.15,10.0,South,18.4,24.2,N/A,,Clear,170,2012-11-18 19:52:00
2:52 PM,64.0,35.1,34,30.14,10.0,South,13.8,28.8,N/A,,Clear,170,2012-11-18 20:52:00
3:52 PM,62.1,35.1,37,30.14,10.0,SSE,12.7,-,N/A,,Clear,160,2012-11-18 21:52:00
4:52 PM,59.0,36.0,42,30.15,10.0,SSE,10.4,-,N/A,,Partly Cloudy,150,2012-11-18 22:52:00
5:52 PM,55.9,36.0,47,30.15,10.0,SE,12.7,-,N/A,,Partly Cloudy,140,2012-11-18 23:52:00
6:52 PM,55.9,36.0,47,30.16,10.0,SE,8.1,-,N/A,,Overcast,130,2012-11-19 00:52:00
7:52 PM,55.9,36.0,47,30.15,10.0,SE,8.1,-,N/A,,Overcast,140,2012-11-19 01:52:00
8:52 PM,57.0,36.0,45,30.15,10.0,South,9.2,-,0.00,,Overcast,170,2012-11-19 02:52:00
9:52 PM,57.9,34.0,41,30.15,10.0,South,9.2,-,N/A,,Overcast,170,2012-11-19 03:52:00
10:52 PM,57.0,34.0,42,30.13,10.0,South,11.5,-,N/A,,Clear,170,2012-11-19 04:52:00
11:52 PM,57.0,33.1,40,30.12,10.0,SSE,17.3,21.9,N/A,,Clear,160,2012-11-19 05:52:00